Tracking 32938 objects as of 12-Jan-2026
HD Live streaming from Space Station
objects crossing your sky now

THOR ABLESTAR DEB

Track THOR ABLESTAR DEB now!
10-day predictions


NORAD ID: 559
Int'l Code: 1961-015GR
Perigee: 629.7 km
Apogee: 701.9 km
Inclination: 66.6 °
Period: 97.9 minutes
Semi major axis: 7036 km
RCS: 0.0375 m2 (small)
Launch date: June 29, 1961
Source: United States (US)
Launch site: AIR FORCE EASTERN TEST RANGE (AFETR)

Note: This is SATELLITE DEBRIS
Your satellite tracking list
Your tracking list is empty




NASA's NSSDC Master Catalog

Two Line Element Set (TLE):
1 00559U 61015GR  26012.28930201  .00008819  00000-0  14293-2 0  9995
2 00559  66.6003   9.8151 0051252 273.7513  85.7746 14.70758782326826
Source of the keplerian elements: AFSPC